Fingard — OJNG — position and weather

sailwx.info

Track history (hours):
 
Tides and Currents Weather Stations Pressure Air Temp Water Temp Dewpoint Dewpoint Depression Visibility Wind Speed Wind Dir Waves Ship Positions

Fingard

Last reported at 2014-Oct-21 13:26 UTC. Time now 2014-Oct-21 13:39 UTC.
Position N 53°54' E 009°10'.

Length 95 m; draft 5.6 m.

Type: Ship. MMSI: 230999000.

Date/timePositionNaut miles runAvg speedWind from/ knotsBaromVisibWave heightAir tempDewpointWater temp
2014-Oct-21 13:26N 53°54' E 009°10'0 0.0
2014-Oct-21 12:29N 53°54' E 009°10'0 0.0
2014-Oct-21 11:29N 53°54' E 009°10'0 0.0
2014-Oct-21 10:29N 53°54' E 009°10'0 0.0
2014-Oct-21 09:23N 53°54' E 009°10'0 0.0
2014-Oct-21 08:22N 53°54' E 009°10'0 0.0
2014-Oct-21 07:28N 53°54' E 009°10'0 0.0
2014-Oct-21 06:28N 53°54' E 009°10'0 0.0
2014-Oct-21 05:31N 53°54' E 009°10'0 0.0
2014-Oct-21 04:28N 53°54' E 009°10'0 0.0
2014-Oct-21 03:22N 53°54' E 009°10'0 0.0
2014-Oct-21 02:31N 53°54' E 009°10'0 0.0
2014-Oct-21 01:31N 53°54' E 009°10'0 0.0
2014-Oct-21 00:31N 53°54' E 009°10'0 0.0
2014-Oct-20 23:25N 53°54' E 009°10'0 0.0
2014-Oct-20 22:31N 53°54' E 009°10'0 0.0
2014-Oct-20 21:31N 53°54' E 009°10'0 0.0
2014-Oct-20 20:25N 53°54' E 009°10'0 0.0
2014-Oct-20 19:28N 53°54' E 009°10'0 0.4
2014-Oct-20 18:33N 53°54' E 009°10'10 8.3
2014-Oct-20 17:19N 54°03' E 009°18'8 7.9
2014-Oct-20 16:19N 54°10' E 009°25'5 4.2
2014-Oct-20 15:13N 54°12' E 009°33'4 5.6
2014-Oct-20 14:34N 54°15' E 009°37'3 2.6
2014-Oct-20 13:33N 54°17' E 009°39'4 3.9
2014-Oct-20 12:33N 54°20' E 009°44'7 6.6
2014-Oct-20 11:33N 54°21' E 009°55'6 5.6
2014-Oct-20 10:33N 54°22' E 010°04'2 1.9
2014-Oct-20 09:29N 54°22' E 010°08'0 0.0
2014-Oct-20 08:33N 54°22' E 010°08'1 1.0
2014-Oct-20 07:33N 54°22' E 010°09'3 3.2
2014-Oct-20 06:33N 54°25' E 010°12'8 8.1
2014-Oct-20 05:33N 54°31' E 010°21'1110.5
2014-Oct-20 04:33N 54°34' E 010°38'30 9.9
2014-Oct-20 01:34N 54°32' E 011°29'1110.6
2014-Oct-20 00:33N 54°27' E 011°46'1010.4
2014-Oct-19 23:34N 54°27' E 012°04'5310.4
2014-Oct-19 18:25N 54°56' E 013°21'1011.4
2014-Oct-19 17:32N 54°59' E 013°38'1111.4
2014-Oct-19 16:33N 55°03' E 013°56'1111.0
2014-Oct-19 15:33N 55°10' E 014°11'1111.3
2014-Oct-19 14:34N 55°19' E 014°24'1111.1
2014-Oct-19 13:33N 55°27' E 014°37'1111.2
2014-Oct-19 12:33N 55°33' E 014°54'1111.0
2014-Oct-19 11:33N 55°38' E 015°11'2211.1
2014-Oct-19 09:33N 55°50' E 015°45'1110.8
2014-Oct-19 08:33N 55°55' E 016°01'1110.8
2014-Oct-19 07:33N 56°01' E 016°18'  
2014-Oct-14 08:19N 57°24' E 017°44'810.2
2014-Oct-14 07:33N 57°17' E 017°38'10 9.9
2014-Oct-14 06:33N 57°07' E 017°33'10 9.7
2014-Oct-14 05:34N 56°59' E 017°27'71 8.8
2014-Oct-13 21:30N 55°57' E 016°25'47 9.1
2014-Oct-13 16:24N 55°33' E 015°13'8 9.2
2014-Oct-13 15:31N 55°29' E 015°01'9 9.5
2014-Oct-13 14:33N 55°25' E 014°47'10 9.7
2014-Oct-13 13:33N 55°18' E 014°34'1111.1
2014-Oct-13 12:33N 55°10' E 014°22'1010.4
2014-Oct-13 11:33N 55°02' E 014°09'6810.7
2014-Oct-13 05:12N 54°33' E 012°23'711.0
2014-Oct-13 04:32N 54°28' E 012°14'1010.1
2014-Oct-13 03:33N 54°25' E 011°58'3411.0
2014-Oct-13 00:30N 54°35' E 011°03'1211.9
2014-Oct-12 23:30N 54°33' E 010°43'1111.5
2014-Oct-12 22:33N 54°31' E 010°24'1111.0
2014-Oct-12 21:33N 54°23' E 010°11'2 2.2
2014-Oct-12 20:33N 54°22' E 010°08'3 3.0
2014-Oct-12 19:33N 54°22' E 010°03'6 6.1
2014-Oct-12 18:33N 54°22' E 009°52'8 7.5
2014-Oct-12 17:34N 54°18' E 009°41'4 3.6
2014-Oct-12 16:32N 54°15' E 009°37'8 8.1
2014-Oct-12 15:32N 54°10' E 009°26'8 8.1
2014-Oct-12 14:32N 54°03' E 009°18'7 7.0
2014-Oct-12 13:31N 53°57' E 009°14'0 0.1
2014-Oct-12 12:33N 53°57' E 009°14'5 4.6
2014-Oct-12 11:33N 53°53' E 009°08'1010.1
2014-Oct-12 10:33N 53°50' E 008°52'10 9.8
2014-Oct-12 09:34N 53°56' E 008°39'1010.4
2014-Oct-12 08:33N 53°59' E 008°22'1111.4
2014-Oct-12 07:33N 53°58' E 008°03'1111.2
2014-Oct-12 06:33N 53°56' E 007°44'1110.5
2014-Oct-12 05:27N 53°53' E 007°25'4710.7
2014-Oct-12 01:05N 53°42' E 006°08'711.4
2014-Oct-12 00:30N 53°40' E 005°57'1111.8
2014-Oct-11 23:33N 53°36' E 005°40'1212.2
2014-Oct-11 22:33N 53°33' E 005°20'1312.9
2014-Oct-11 21:33N 53°28' E 004°60'1312.5
2014-Oct-11 20:33N 53°22' E 004°42'2612.9
2014-Oct-11 18:33N 52°59' E 004°22'1313.0
2014-Oct-11 17:33N 52°48' E 004°11'1111.0
2014-Oct-11 16:33N 52°40' E 003°59'1412.6
2014-Oct-11 15:28N 52°30' E 003°43'  
Track history (hours):
 
Tides and Currents Weather Stations Pressure Air Temp Water Temp Dewpoint Dewpoint Depression Visibility Wind Speed Wind Dir Waves Ship Positions

Fingard

Last reported at 2014-Oct-21 13:26 UTC. Time now 2014-Oct-21 13:39 UTC.
Position N 53°54' E 009°10'.

Length 95 m; draft 5.6 m.

Type: Ship. MMSI: 230999000.

Date/timePositionNaut miles runAvg speedWind from/ knotsBaromVisibWave heightAir tempDewpointWater temp
2014-Oct-21 13:26N 53°54' E 009°10'0 0.0
2014-Oct-21 12:29N 53°54' E 009°10'0 0.0
2014-Oct-21 11:29N 53°54' E 009°10'0 0.0
2014-Oct-21 10:29N 53°54' E 009°10'0 0.0
2014-Oct-21 09:23N 53°54' E 009°10'0 0.0
2014-Oct-21 08:22N 53°54' E 009°10'0 0.0
2014-Oct-21 07:28N 53°54' E 009°10'0 0.0
2014-Oct-21 06:28N 53°54' E 009°10'0 0.0
2014-Oct-21 05:31N 53°54' E 009°10'0 0.0
2014-Oct-21 04:28N 53°54' E 009°10'0 0.0
2014-Oct-21 03:22N 53°54' E 009°10'0 0.0
2014-Oct-21 02:31N 53°54' E 009°10'0 0.0
2014-Oct-21 01:31N 53°54' E 009°10'0 0.0
2014-Oct-21 00:31N 53°54' E 009°10'0 0.0
2014-Oct-20 23:25N 53°54' E 009°10'0 0.0
2014-Oct-20 22:31N 53°54' E 009°10'0 0.0
2014-Oct-20 21:31N 53°54' E 009°10'0 0.0
2014-Oct-20 20:25N 53°54' E 009°10'0 0.0
2014-Oct-20 19:28N 53°54' E 009°10'0 0.4
2014-Oct-20 18:33N 53°54' E 009°10'10 8.3
2014-Oct-20 17:19N 54°03' E 009°18'8 7.9
2014-Oct-20 16:19N 54°10' E 009°25'5 4.2
2014-Oct-20 15:13N 54°12' E 009°33'4 5.6
2014-Oct-20 14:34N 54°15' E 009°37'3 2.6
2014-Oct-20 13:33N 54°17' E 009°39'4 3.9
2014-Oct-20 12:33N 54°20' E 009°44'7 6.6
2014-Oct-20 11:33N 54°21' E 009°55'6 5.6
2014-Oct-20 10:33N 54°22' E 010°04'2 1.9
2014-Oct-20 09:29N 54°22' E 010°08'0 0.0
2014-Oct-20 08:33N 54°22' E 010°08'1 1.0
2014-Oct-20 07:33N 54°22' E 010°09'3 3.2
2014-Oct-20 06:33N 54°25' E 010°12'8 8.1
2014-Oct-20 05:33N 54°31' E 010°21'1110.5
2014-Oct-20 04:33N 54°34' E 010°38'30 9.9
2014-Oct-20 01:34N 54°32' E 011°29'1110.6
2014-Oct-20 00:33N 54°27' E 011°46'1010.4
2014-Oct-19 23:34N 54°27' E 012°04'5310.4
2014-Oct-19 18:25N 54°56' E 013°21'1011.4
2014-Oct-19 17:32N 54°59' E 013°38'1111.4
2014-Oct-19 16:33N 55°03' E 013°56'1111.0
2014-Oct-19 15:33N 55°10' E 014°11'1111.3
2014-Oct-19 14:34N 55°19' E 014°24'1111.1
2014-Oct-19 13:33N 55°27' E 014°37'1111.2
2014-Oct-19 12:33N 55°33' E 014°54'1111.0
2014-Oct-19 11:33N 55°38' E 015°11'2211.1
2014-Oct-19 09:33N 55°50' E 015°45'1110.8
2014-Oct-19 08:33N 55°55' E 016°01'1110.8
2014-Oct-19 07:33N 56°01' E 016°18'  
2014-Oct-14 08:19N 57°24' E 017°44'810.2
2014-Oct-14 07:33N 57°17' E 017°38'10 9.9
2014-Oct-14 06:33N 57°07' E 017°33'10 9.7
2014-Oct-14 05:34N 56°59' E 017°27'71 8.8
2014-Oct-13 21:30N 55°57' E 016°25'47 9.1
2014-Oct-13 16:24N 55°33' E 015°13'8 9.2
2014-Oct-13 15:31N 55°29' E 015°01'9 9.5
2014-Oct-13 14:33N 55°25' E 014°47'10 9.7
2014-Oct-13 13:33N 55°18' E 014°34'1111.1
2014-Oct-13 12:33N 55°10' E 014°22'1010.4
2014-Oct-13 11:33N 55°02' E 014°09'6810.7
2014-Oct-13 05:12N 54°33' E 012°23'711.0
2014-Oct-13 04:32N 54°28' E 012°14'1010.1
2014-Oct-13 03:33N 54°25' E 011°58'3411.0
2014-Oct-13 00:30N 54°35' E 011°03'1211.9
2014-Oct-12 23:30N 54°33' E 010°43'1111.5
2014-Oct-12 22:33N 54°31' E 010°24'1111.0
2014-Oct-12 21:33N 54°23' E 010°11'2 2.2
2014-Oct-12 20:33N 54°22' E 010°08'3 3.0
2014-Oct-12 19:33N 54°22' E 010°03'6 6.1
2014-Oct-12 18:33N 54°22' E 009°52'8 7.5
2014-Oct-12 17:34N 54°18' E 009°41'4 3.6
2014-Oct-12 16:32N 54°15' E 009°37'8 8.1
2014-Oct-12 15:32N 54°10' E 009°26'8 8.1
2014-Oct-12 14:32N 54°03' E 009°18'7 7.0
2014-Oct-12 13:31N 53°57' E 009°14'0 0.1
2014-Oct-12 12:33N 53°57' E 009°14'5 4.6
2014-Oct-12 11:33N 53°53' E 009°08'1010.1
2014-Oct-12 10:33N 53°50' E 008°52'10 9.8
2014-Oct-12 09:34N 53°56' E 008°39'1010.4
2014-Oct-12 08:33N 53°59' E 008°22'1111.4
2014-Oct-12 07:33N 53°58' E 008°03'1111.2
2014-Oct-12 06:33N 53°56' E 007°44'1110.5
2014-Oct-12 05:27N 53°53' E 007°25'4710.7
2014-Oct-12 01:05N 53°42' E 006°08'711.4
2014-Oct-12 00:30N 53°40' E 005°57'1111.8
2014-Oct-11 23:33N 53°36' E 005°40'1212.2
2014-Oct-11 22:33N 53°33' E 005°20'1312.9
2014-Oct-11 21:33N 53°28' E 004°60'1312.5
2014-Oct-11 20:33N 53°22' E 004°42'2612.9
2014-Oct-11 18:33N 52°59' E 004°22'1313.0
2014-Oct-11 17:33N 52°48' E 004°11'1111.0
2014-Oct-11 16:33N 52°40' E 003°59'1412.6
2014-Oct-11 15:28N 52°30' E 003°43'  

Dump ship's entire track history